Regional Weather Roundup
Issued by NWS Northern Indiana

Home | Current Version | Previous Version | Graphics & Text | Print | Product List | Glossary On
Versions: 1 2 3 4 5 6 7 8 9 10 11 12 13 14 15 16 17 18 19 20 21 22 23 24 25 26 27 28 29 30 31 32 33 34 35 36 37 38 39 40 41 42 43 44 45 46 47 48 49 50
000
ASUS43 KIWX 231010
RWRIWX

KIWX WEATHER ROUNDUP
NATIONAL WEATHER SERVICE NORTHERN INDIANA
600 AM EDT TUE MAY 23 2017

NOTE: "FAIR" INDICATES FEW OR NO CLOUDS BELOW 12,000 FEET WITH NO
SIGNIFICANT WEATHER AND/OR OBSTRUCTIONS TO VISIBILITY.

* THESE STATIONS ARE NOT UNDER NWS QUALITY CONTROL. THEY ALSO MAY NOT
  REPORT WEATHER SUCH AS PRECIPITATION OR FOG.

INZ001>027-231100-
NORTHERN INDIANA

CITY           SKY/WX    TMP DP  RH WIND       PRES   REMARKS
GARY*          MOCLDY    61  52  72 S5        29.84F
VALPARAISO     CLOUDY    60  55  83 SW6       29.85F
MICHIGAN CITY* CLOUDY    59  52  77 S6        29.85S
LAPORTE*       CLOUDY    58  53  81 SW3       29.86S
KNOX*          CLOUDY    57  46  67 S6        29.85F
SOUTH BEND     CLOUDY    58  52  80 S9        29.86F
GOSHEN         LGT RAIN  59  50  72 S5        29.88S
MONTICELLO*    CLOUDY    57  52  82 CALM      29.87F
LOGANSPORT*    CLOUDY    55  52  88 CALM      29.88F
ROCHESTER*     CLOUDY    61  52  72 CALM      29.89R
WARSAW*        CLOUDY    57  50  77 CALM      29.88F
ANGOLA*        CLOUDY    57  48  72 CALM      29.89S
FORT WAYNE     LGT RAIN  57  49  74 SW5       29.89F
HUNTINGTON*    CLOUDY    57  50  76 S3        29.89F
PERU/GRISSOM   CLOUDY    57  51  81 S3        29.87F
MARION*        CLOUDY    55  50  82 CALM      29.90F

$$
INZ028>050-231100-
CENTRAL INDIANA

CITY           SKY/WX    TMP DP  RH WIND       PRES   REMARKS
LAFAYETTE      CLOUDY    57  52  83 CALM      29.88S
KOKOMO*        CLOUDY    58  51  78 S6        29.89
MUNCIE*        CLOUDY    58  49  72 CALM      29.89F
INDIANAPOLIS   CLOUDY    59  47  64 CALM      29.87F

$$
MIZ043>046-050>051-056>058-064>065-071>073-077>080-231100-
SOUTHWEST LOWER MICHIGAN

CITY           SKY/WX    TMP DP  RH WIND       PRES   REMARKS
BATTLE CREEK   CLOUDY    59  51  75 S9        29.87F
BENTON HARBOR  CLOUDY    59  51  75 SE5       29.84S
COLDWATER*     CLOUDY    57  53  86 CALM      29.89S
HILLSDALE*     CLOUDY    55  46  71 S3        29.89S
HOLLAND        CLOUDY    60  51  72 SW9       29.84F
GRAND RAPIDS   CLOUDY    58  53  84 S7        29.84F
KALAMAZOO      LGT RAIN  59  50  72 S9        29.87S
STURGIS*       DRIZZLE   56  53  88 S5        29.87F
THREE RIVERS*  LGT RAIN  57  52  81 S6        29.87F

$$
OHZ001>008-015>018-024>025-231100-
NORTHWEST OHIO

CITY           SKY/WX    TMP DP  RH WIND       PRES   REMARKS
WAUSEON*       CLOUDY    57  50  77 S8        29.89F
DEFIANCE       CLOUDY    56  48  74 S7        29.90S
FINDLAY        CLOUDY    54  46  74 S3        29.91F
TOLEDO EXPRESS CLOUDY    56  49  77 S7        29.90S
TOLEDO METCALF MOCLDY    56  49  77 S6        29.91F
LIMA           PTCLDY    52  49  89 SE7       29.91F

$$
AND FOR LAKE MICHIGAN COASTAL AND OPEN LAKE BUOY OBSERVATIONS

STATION/POSITION TEMP    WIND        PRES    VSBY  WAVE
                 AIR SEA DIR/SP/G                  HT/PER
                 (F)     (DEG/KT/KT) (MB)    (MI)  (FT/S)
CALUMET HARBOR    61     190/  6/ 12 1009.5F
MICHIGAN CITY     60     170/  9/ 11   N/A
BURNS HARBOR      60     200/ 11/ 15 1010.8F
SOUTH LAKE BUOY   48 45  180/ 10/ 10 1009.9          1/ 4
4 MI NW BRIDGMAN  57 55  200/  4/  6 1010.6          2/ 3
MICHIGAN CITY     56 53  200/  6/  8   N/A           1/ 3

$$
&&




USA.gov is the U.S. government's official web portal to all federal, state and local government web resources and services.